timestamp,wind_dir_avg,wind_spd_avg,wind_spd_max_dir,wind_spd_gust,battery_voltage,lat,long
2023-10-22 00:04:01+00:00,222.0,17.59,225.0,23.51,12.25,47.59359,-54.27349
2023-10-22 00:14:01+00:00,226.0,10.56,224.0,12.03,12.17,47.59359,-54.27349
2023-10-22 00:24:01+00:00,226.0,9.73,225.0,12.17,12.17,47.59359,-54.27349
2023-10-22 00:34:01+00:00,224.0,8.99,225.0,10.37,12.17,47.59359,-54.27349
2023-10-22 00:44:01+00:00,221.0,9.83,225.0,11.72,12.17,47.59359,-54.27349
2023-10-22 00:54:01+00:00,217.0,7.82,222.0,9.43,12.17,47.59359,-54.27349
2023-10-22 01:04:01+00:00,211.0,8.38,217.0,9.71,12.17,47.59359,-54.27349
2023-10-22 01:14:00+00:00,212.0,7.11,212.0,7.59,12.25,47.59359,-54.27349
2023-10-22 01:24:00+00:00,212.0,7.15,214.0,7.7,12.25,47.59359,-54.27349
2023-10-22 01:34:00+00:00,209.0,7.54,208.0,7.89,12.25,47.59359,-54.27349
2023-10-22 01:44:00+00:00,211.0,7.75,212.0,8.11,12.25,47.59359,-54.27349
2023-10-22 01:54:00+00:00,214.0,6.66,217.0,7.66,12.25,47.59359,-54.27349
2023-10-22 02:04:00+00:00,221.0,6.07,222.0,6.91,12.25,47.59359,-54.27349
2023-10-22 02:14:01+00:00,210.0,7.79,210.0,8.78,12.17,47.59359,-54.27349
2023-10-22 02:24:01+00:00,211.0,8.24,217.0,8.95,12.17,47.59359,-54.27349
2023-10-22 02:34:01+00:00,211.0,7.67,214.0,8.55,12.17,47.59359,-54.27349
2023-10-22 02:44:01+00:00,206.0,7.66,205.0,8.6,12.17,47.59359,-54.27349
2023-10-22 02:54:01+00:00,209.0,9.56,220.0,11.58,12.17,47.59359,-54.27349
2023-10-22 03:04:01+00:00,213.0,11.3,214.0,12.83,12.17,47.59359,-54.27349
2023-10-22 03:14:01+00:00,208.0,9.55,208.0,10.79,12.17,47.59359,-54.27349
2023-10-22 03:24:01+00:00,206.0,9.2,204.0,10.16,12.17,47.59359,-54.27349
2023-10-22 03:34:01+00:00,208.0,8.68,205.0,9.81,12.17,47.59359,-54.27349
2023-10-22 03:44:01+00:00,210.0,8.81,211.0,9.93,12.17,47.59359,-54.27349
2023-10-22 03:54:01+00:00,211.0,9.46,207.0,10.72,12.17,47.59359,-54.27349
2023-10-22 04:04:01+00:00,206.0,9.29,205.0,10.51,12.17,47.59359,-54.27349
2023-10-22 04:14:01+00:00,207.0,9.23,214.0,10.61,12.09,47.59359,-54.27349
2023-10-22 04:24:01+00:00,212.0,9.23,215.0,10.42,12.09,47.59359,-54.27349
2023-10-22 04:34:01+00:00,209.0,8.44,206.0,9.3,12.09,47.59359,-54.27349
2023-10-22 04:44:01+00:00,213.0,8.34,209.0,9.02,12.09,47.59359,-54.27349
2023-10-22 04:54:01+00:00,220.0,7.87,221.0,8.74,12.09,47.59359,-54.27349
2023-10-22 05:04:01+00:00,210.0,7.94,206.0,8.87,12.09,47.59359,-54.27349
2023-10-22 05:14:01+00:00,213.0,7.58,213.0,8.6,12.09,47.59359,-54.27349
2023-10-22 05:24:01+00:00,220.0,7.06,222.0,8.45,12.09,47.59359,-54.27349
2023-10-22 05:34:01+00:00,213.0,7.43,214.0,8.44,12.09,47.59359,-54.27349
2023-10-22 05:44:01+00:00,215.0,7.63,214.0,8.35,12.09,47.59359,-54.27349
2023-10-22 05:54:01+00:00,209.0,7.06,209.0,7.74,12.09,47.59359,-54.27349
2023-10-22 06:04:01+00:00,221.0,5.21,221.0,5.94,12.09,47.59359,-54.27349
2023-10-22 06:14:00+00:00,211.0,4.59,210.0,5.32,12.09,47.59359,-54.27349
2023-10-22 06:24:00+00:00,212.0,4.92,219.0,5.83,12.09,47.59359,-54.27349
2023-10-22 06:34:00+00:00,315.0,0.01,164.0,0.0,12.09,47.59359,-54.27349
2023-10-22 06:44:00+00:00,159.0,3.89,159.0,4.39,12.09,47.59359,-54.27349
2023-10-22 06:54:00+00:00,150.0,4.69,149.0,5.22,12.09,47.59359,-54.27349
2023-10-22 07:04:00+00:00,162.0,2.46,163.0,2.73,12.09,47.59359,-54.27349
2023-10-22 07:14:01+00:00,185.0,5.24,183.0,5.93,12.09,47.59359,-54.27349
2023-10-22 07:24:01+00:00,217.0,3.67,234.0,4.49,12.09,47.59359,-54.27349
2023-10-22 07:34:01+00:00,205.0,6.3,210.0,6.91,12.09,47.59359,-54.27349
2023-10-22 07:44:01+00:00,219.0,4.85,220.0,5.44,12.09,47.59359,-54.27349
2023-10-22 07:54:01+00:00,243.0,4.56,241.0,5.0,12.09,47.59359,-54.27349
2023-10-22 08:04:01+00:00,223.0,3.21,230.0,4.41,12.09,47.59359,-54.27349
2023-10-22 08:14:00+00:00,190.0,3.45,196.0,4.74,12.09,47.59359,-54.27349
2023-10-22 08:24:00+00:00,178.0,5.91,177.0,6.42,12.09,47.59359,-54.27349
2023-10-22 08:34:00+00:00,191.0,5.65,189.0,6.44,12.09,47.59359,-54.27349
2023-10-22 08:44:00+00:00,240.0,5.06,238.0,6.08,12.09,47.59359,-54.27349
2023-10-22 08:54:00+00:00,235.0,9.08,233.0,11.04,12.09,47.59359,-54.27349
2023-10-22 09:04:00+00:00,222.0,12.42,224.0,14.03,12.09,47.59359,-54.27349
2023-10-22 09:14:00+00:00,219.0,13.23,217.0,15.04,12.09,47.59359,-54.27349
2023-10-22 09:24:00+00:00,222.0,12.04,217.0,13.17,12.09,47.59359,-54.27349
2023-10-22 09:34:00+00:00,219.0,11.93,227.0,13.73,12.09,47.59359,-54.27349
2023-10-22 09:44:00+00:00,217.0,11.55,221.0,13.34,12.09,47.59359,-54.27349
2023-10-22 09:54:00+00:00,212.0,10.27,225.0,12.65,12.09,47.59359,-54.27349
2023-10-22 10:04:00+00:00,217.0,10.13,224.0,12.72,12.09,47.59359,-54.27349
2023-10-22 10:14:01+00:00,217.0,10.87,225.0,13.36,12.09,47.59359,-54.27349
2023-10-22 10:24:01+00:00,208.0,8.16,209.0,9.19,12.09,47.59359,-54.27349
2023-10-22 10:34:01+00:00,204.0,8.88,218.0,10.73,12.09,47.59359,-54.27349
2023-10-22 10:44:01+00:00,205.0,9.09,202.0,10.17,12.09,47.59359,-54.27349
2023-10-22 10:54:01+00:00,204.0,8.13,205.0,8.94,12.09,47.59359,-54.27349
2023-10-22 11:04:01+00:00,201.0,8.65,201.0,9.56,12.09,47.59359,-54.27349
2023-10-22 11:14:01+00:00,201.0,8.66,202.0,9.31,12.17,47.59359,-54.27349
2023-10-22 11:24:01+00:00,204.0,8.23,200.0,9.05,12.17,47.59359,-54.27349
2023-10-22 11:34:01+00:00,204.0,8.5,209.0,9.49,12.17,47.59359,-54.27349
2023-10-22 11:44:01+00:00,212.0,9.05,227.0,12.41,12.17,47.59359,-54.27349
2023-10-22 11:54:01+00:00,214.0,10.77,221.0,13.58,12.17,47.59359,-54.27349
2023-10-22 12:04:01+00:00,212.0,9.75,227.0,12.13,12.17,47.59359,-54.27349
2023-10-22 12:14:01+00:00,204.0,9.12,209.0,10.2,12.41,47.59359,-54.27349
2023-10-22 12:24:01+00:00,207.0,9.39,206.0,10.56,12.41,47.59359,-54.27349
2023-10-22 12:34:01+00:00,208.0,9.05,222.0,12.21,12.41,47.59359,-54.27349
2023-10-22 12:44:01+00:00,212.0,9.24,221.0,11.67,12.41,47.59359,-54.27349
2023-10-22 12:54:01+00:00,221.0,11.83,227.0,13.38,12.41,47.59359,-54.27349
2023-10-22 13:04:01+00:00,220.0,11.81,224.0,13.38,12.41,47.59359,-54.27349
2023-10-22 13:14:00+00:00,218.0,11.62,217.0,13.52,13.05,47.59359,-54.27349
2023-10-22 13:24:00+00:00,217.0,11.56,217.0,14.04,13.05,47.59359,-54.27349
2023-10-22 13:34:00+00:00,213.0,10.42,211.0,12.36,13.05,47.59359,-54.27349
2023-10-22 13:44:00+00:00,219.0,12.31,217.0,14.76,13.05,47.59359,-54.27349
2023-10-22 13:54:00+00:00,217.0,11.95,218.0,14.15,13.05,47.59359,-54.27349
2023-10-22 14:04:00+00:00,217.0,12.91,216.0,14.55,13.05,47.59359,-54.27349
2023-10-22 14:14:00+00:00,220.0,12.13,219.0,14.14,13.68,47.59359,-54.27349
2023-10-22 14:24:00+00:00,218.0,12.52,217.0,14.24,13.68,47.59359,-54.27349
2023-10-22 14:34:00+00:00,218.0,12.86,220.0,14.81,13.68,47.59359,-54.27349
2023-10-22 14:44:00+00:00,218.0,12.27,219.0,13.59,13.68,47.59359,-54.27349
2023-10-22 14:54:00+00:00,217.0,12.53,216.0,14.28,13.68,47.59359,-54.27349
2023-10-22 15:04:00+00:00,218.0,12.5,215.0,14.49,13.68,47.59359,-54.27349
2023-10-22 15:14:00+00:00,218.0,12.9,213.0,15.27,13.29,47.59359,-54.27349
2023-10-22 15:24:00+00:00,220.0,12.64,222.0,13.81,13.29,47.59359,-54.27349
2023-10-22 15:34:00+00:00,218.0,10.79,216.0,12.94,13.29,47.59359,-54.27349
2023-10-22 15:44:00+00:00,218.0,12.17,213.0,15.94,13.29,47.59359,-54.27349
2023-10-22 15:54:00+00:00,219.0,11.9,220.0,14.14,13.29,47.59359,-54.27349
2023-10-22 16:04:00+00:00,221.0,9.97,222.0,11.86,13.29,47.59359,-54.27349
2023-10-22 16:14:00+00:00,220.0,12.93,214.0,15.28,13.37,47.59359,-54.27349
2023-10-22 16:24:00+00:00,219.0,13.35,215.0,15.39,13.37,47.59359,-54.27349
2023-10-22 16:34:00+00:00,220.0,12.83,216.0,14.35,13.37,47.59359,-54.27349
2023-10-22 16:44:00+00:00,217.0,13.17,224.0,14.87,13.37,47.59359,-54.27349
2023-10-22 16:54:00+00:00,214.0,14.17,219.0,16.84,13.37,47.59359,-54.27349
2023-10-22 17:04:00+00:00,218.0,13.33,223.0,17.55,13.37,47.59359,-54.27349
2023-10-22 17:14:00+00:00,220.0,13.65,221.0,17.35,13.21,47.59359,-54.27349
2023-10-22 17:24:00+00:00,217.0,14.46,214.0,16.66,13.21,47.59359,-54.27349
2023-10-22 17:34:00+00:00,221.0,13.6,236.0,17.7,13.21,47.59359,-54.27349
2023-10-22 17:44:00+00:00,220.0,12.18,218.0,15.55,13.21,47.59359,-54.27349
2023-10-22 17:54:00+00:00,217.0,12.74,220.0,13.98,13.21,47.59359,-54.27349
2023-10-22 18:04:00+00:00,225.0,13.18,233.0,15.09,13.21,47.59359,-54.27349
2023-10-22 18:14:01+00:00,226.0,13.0,231.0,18.06,12.97,47.59359,-54.27349
2023-10-22 18:24:01+00:00,223.0,13.04,221.0,14.75,12.97,47.59359,-54.27349
2023-10-22 18:34:01+00:00,221.0,12.28,223.0,13.74,12.97,47.59359,-54.27349
2023-10-22 18:44:01+00:00,229.0,13.29,237.0,18.03,12.97,47.59359,-54.27349
2023-10-22 18:54:01+00:00,226.0,12.42,231.0,16.39,12.97,47.59359,-54.27349
2023-10-22 19:04:01+00:00,231.0,15.8,233.0,21.57,12.97,47.59359,-54.27349
2023-10-22 19:14:01+00:00,226.0,12.74,240.0,18.98,12.73,47.59359,-54.27349
2023-10-22 19:24:01+00:00,222.0,11.23,227.0,13.58,12.73,47.59359,-54.27349
2023-10-22 19:34:01+00:00,220.0,12.14,221.0,13.5,12.73,47.59359,-54.27349
2023-10-22 19:44:01+00:00,220.0,10.63,216.0,13.0,12.73,47.59359,-54.27349
2023-10-22 19:54:01+00:00,221.0,10.01,224.0,12.07,12.73,47.59359,-54.27349
2023-10-22 20:04:01+00:00,218.0,12.09,217.0,13.69,12.73,47.59359,-54.27349
2023-10-22 20:14:01+00:00,221.0,11.29,219.0,12.83,12.49,47.59359,-54.27349
2023-10-22 20:24:01+00:00,224.0,10.94,218.0,13.72,12.49,47.59359,-54.27349
2023-10-22 20:34:01+00:00,224.0,11.42,221.0,14.05,12.49,47.59359,-54.27349
2023-10-22 20:44:01+00:00,226.0,10.69,225.0,11.98,12.49,47.59359,-54.27349
2023-10-22 20:54:01+00:00,224.0,11.2,221.0,12.83,12.49,47.59359,-54.27349
2023-10-22 21:04:01+00:00,231.0,10.16,231.0,11.72,12.49,47.59359,-54.27349
2023-10-22 21:14:00+00:00,231.0,10.46,224.0,12.56,12.41,47.59359,-54.27349
2023-10-22 21:24:00+00:00,228.0,10.25,225.0,12.47,12.41,47.59359,-54.27349
2023-10-22 21:34:00+00:00,231.0,9.89,230.0,11.52,12.41,47.59359,-54.27349
2023-10-22 21:44:00+00:00,233.0,8.93,234.0,10.18,12.41,47.59359,-54.27349
2023-10-22 21:54:00+00:00,232.0,9.33,232.0,11.08,12.41,47.59359,-54.27349
2023-10-22 22:04:00+00:00,232.0,8.67,227.0,10.57,12.41,47.59359,-54.27349
2023-10-22 22:14:00+00:00,233.0,8.39,237.0,9.56,12.41,47.59359,-54.27349
2023-10-22 22:24:00+00:00,231.0,8.68,229.0,9.72,12.41,47.59359,-54.27349
2023-10-22 22:34:00+00:00,234.0,8.33,234.0,9.44,12.41,47.59359,-54.27349
2023-10-22 22:44:00+00:00,234.0,7.6,236.0,9.58,12.41,47.59359,-54.27349
2023-10-22 22:54:00+00:00,235.0,7.47,236.0,8.5,12.41,47.59359,-54.27349
2023-10-22 23:04:00+00:00,244.0,6.08,243.0,7.03,12.41,47.59359,-54.27349
2023-10-22 23:14:00+00:00,355.0,9.39,354.0,10.47,12.41,47.59359,-54.27349
2023-10-22 23:24:00+00:00,357.0,9.1,356.0,10.23,12.41,47.59359,-54.27349
2023-10-22 23:34:00+00:00,359.0,10.7,358.0,11.91,12.41,47.59359,-54.27349
2023-10-22 23:44:00+00:00,2.0,9.46,0.0,11.02,12.41,47.59359,-54.27349
2023-10-22 23:54:00+00:00,1.0,10.15,15.0,11.51,12.41,47.59359,-54.27349
